Location: Newark
(54.9353°N, 24.1167°E)
Time: 14:39:02
(UTC+00:00)

Envisat - Visible Passes

Search period start: 27 September 2020 00:00
Search period end: 07 October 2020 00:00
Orbit: 764 x 766 km, 98.1° (Epoch: 27 September)

Date Brightness Start Highest point End Pass type
(mag) Time Alt. Az. Time Alt. Az. Time Alt. Az.
27 Sep 6.1 16:56:12 10° SW 16:59:40 18° W 17:03:10 10° NW visible
28 Sep 6.1 03:17:17 10° NE 03:20:50 19° E 03:24:23 10° SE visible
29 Sep 6.6 17:23:50 10° W 17:25:32 11° W 17:27:12 10° WNW visible
30 Sep 5.4 03:42:10 10° NNE 03:46:35 29° E 03:50:58 10° SSE visible
30 Sep 6.0 16:44:16 10° SW 16:48:09 22° W 16:52:05 10° NW visible
01 Oct 6.2 03:06:17 10° NE 03:09:19 16° E 03:12:19 10° ESE visible
02 Oct 6.4 17:11:19 10° WSW 17:13:58 14° W 17:16:38 10° NW visible
03 Oct 5.7 03:31:00 10° NE 03:35:06 24° E 03:39:12 10° SE visible
03 Oct 5.6 16:32:26 10° SSW 16:36:40 26° W 16:40:55 10° NW visible
04 Oct 6.4 02:55:29 10° NE 02:57:47 13° E 03:00:02 10° ESE visible
05 Oct 4.9 03:56:05 10° NNE 04:00:47 37° E 04:05:29 10° SSE visible
05 Oct 6.2 16:59:09 10° SW 17:02:26 17° W 17:05:44 10° NW visible
06 Oct 6.0 03:19:52 10° NE 03:23:36 20° E 03:27:19 10° SE visible
06 Oct 5.3 16:20:42 10° SSW 16:25:11 31° W 16:29:43 10° NNW visible
